This is the latest recevied weather packets stored in our database for station/object AE0NK. If no packets are shown the sender has not sent any weather packets the latest 10 day(s).
| Time | Temp. | Humidity | Pressure | Rain* | Wind** | Luminosity | Snow |
|---|---|---|---|---|---|---|---|
| 1778194400 | 18.33° C | 34% | 1009.6 hPa | 0 mm | - | 418 W/m² | - |
| 1778194097 | 18.33° C | 35% | 1009.6 hPa | 0 mm | - | 441 W/m² | - |
| 1778193795 | 17.78° C | 35% | 1009.6 hPa | 0 mm | - | 476 W/m² | - |
| 1778193494 | 17.78° C | 36% | 1009.7 hPa | 0 mm | - | 97 W/m² | - |
| 1778193192 | 17.22° C | 38% | 1009.7 hPa | 0 mm | - | 118 W/m² | - |
| 1778192910 | 17.22° C | 37% | 1009.8 hPa | 0 mm | - | 84 W/m² | - |
| 1778192608 | 17.78° C | 37% | 1009.8 hPa | 0 mm | - | 95 W/m² | - |
| 1778192307 | 17.78° C | 36% | 1009.8 hPa | 0 mm | - | 97 W/m² | - |
| 1778192003 | 17.78° C | 36% | 1009.8 hPa | 0 mm | - | 134 W/m² | - |
| 1778191701 | 17.78° C | 36% | 1009.8 hPa | 0 mm | - | 100 W/m² | - |
| 1778191398 | 17.78° C | 36% | 1009.8 hPa | 0 mm | - | 72 W/m² | - |
| 1778191094 | 18.33° C | 34% | 1009.9 hPa | 0 mm | - | 76 W/m² | - |
| 1778190794 | 18.89° C | 33% | 1009.8 hPa | 0 mm | - | 557 W/m² | - |
| 1778190492 | 18.89° C | 37% | 1009.8 hPa | 0 mm | - | 598 W/m² | - |
| 1778190209 | 18.33° C | 36% | 1010 hPa | 0 mm | - | 622 W/m² | - |
| 1778189907 | 18.33° C | 34% | 1010 hPa | 0 mm | - | 332 W/m² | - |
| 1778189607 | 18.33° C | 34% | 1010 hPa | 0 mm | - | 626 W/m² | - |
| 1778189305 | 18.89° C | 32% | 1010 hPa | 0 mm | - | 661 W/m² | - |
| 1778189004 | 18.33° C | 37% | 1010.1 hPa | 0 mm | - | 694 W/m² | - |
| 1778188701 | 17.78° C | 33% | 1010 hPa | 0 mm | - | 195 W/m² | - |
| 1778188398 | 18.33° C | 33% | 1010.1 hPa | 0 mm | - | 714 W/m² | - |
| 1778188095 | 18.33° C | 37% | 1010.2 hPa | 0 mm | - | 698 W/m² | - |
| 1778187793 | 18.33° C | 36% | 1010.2 hPa | 0 mm | - | 707 W/m² | - |
| 1778187508 | 18.33° C | 38% | 1010.3 hPa | 0 mm | - | 714 W/m² | - |
| 1778187205 | 18.33° C | 37% | 1010.4 hPa | 0 mm | - | 717 W/m² | - |
* Rain latest hour (hover to see other rain measurements)
** Current wind speed in m/s (hover to see current wind gust speed)